Retour au catalogue

STARLINK-11606

ActifCommunicationsVLEO
NORAD 63559·PAYLOAD·🇺🇸 United States

Lancé Apr 13, 2025 depuis Cape Canaveral Space Force Station

Loading…

Prochains Passages (prochaines 24 heures)

TLE

FraisSource: CelesTrak SupGP

Époque: Sep 14, 2026, 15:32 UTC

1 63559C 25075M   26257.64770833  .00015121  00000+0  11752-3 0  2572
2 63559  43.0004  94.4604 0001731 271.2178 348.8567 15.70814889    11

Suivez STARLINK-11606 en temps réel avec AllMySat

Download on the App Store